Location: Keppel Henge
(44.7900°N, 80.9447°W)
Time: 11:55:36
(UTC-05:00)

Vanguard 1 Rocket - Pass Details

Date: 25 October 2017
Orbit: 655 x 4222 km, 34.3° (Epoch: 22 November)

Event Time Altitude Azimuth Distance (km) Brightness Sun altitude
Rises 05:41:22 0° 219° (SW) 6,736 - -23.9°
Exits shadow 05:43:17 - 217° (SW) 6,219 11.3 -23.5°
Reaches altitude 10° 05:47:38 10° 208° (SSW) 5,028 10.9 -22.8°
Maximum altitude 05:56:53 23° 163° (SSE) 2,949 10.1 -21.1°
Drops below altitude 10° 06:02:53 10° 113° (ESE) 3,122 11.1 -20.1°
Sets 06:05:40 0° 98° (E) 3,748 12.1 -19.6°
